This demonstration page uses our WeatherBlox Daily Observations layout. Learn more.

38.88101, -77.10428

Hourly Observations for February 19, 2020

Temp ( °F °C ) Dew Point ( °F °C ) Humidity (%) Winds ( mph kmh ) Pressure ( in mb ) Visibility ( mi km ) Precip ( " mm )
12:52 am 00:52 Cloudy 54 12.2 45 7.2 72 72 NW 17 28 30.09 1019 10 16.0934 0.001 0.001
1:52 am 01:52 Cloudy 53 11.7 41 5 64 64 NNW 21 33 30.1 1019 10 16.0934 0 0
2:52 am 02:52 Cloudy with Light Rain 49 9.4 39 3.9 69 69 NNW 17 28 30.14 1021 10 16.0934 0.001 0.001
3:52 am 03:52 Cloudy 49 9.4 38 3.3 66 66 NNW 13 20 30.16 1021 10 16.0934 0.01 0.254
4:52 am 04:52 Cloudy 48 8.9 31 -0.6 52 52 N 17 28 30.18 1022 10 16.0934 0 0
5:52 am 05:52 Cloudy 47 8.3 27 -2.8 46 46 NNW 15 24 30.23 1024 10 16.0934 0 0
6:52 am 06:52 Mostly Cloudy 46 7.8 24 -4.4 42 42 NNW 15 24 30.26 1025 10 16.0934 0 0
7:52 am 07:52 Mostly Cloudy 45 7.2 26 -3.3 48 48 NW 12 19 30.3 1026 10 16.0934 0 0
8:52 am 08:52 Cloudy 43 6.1 25 -3.9 49 49 NW 14 22 30.33 1027 10 16.0934 0 0
9:52 am 09:52 Mostly Cloudy 44 6.7 24 -4.4 45 45 NNW 14 22 30.35 1028 10 16.0934 0 0
10:52 am 10:52 Mostly Cloudy 45 7.2 22 -5.6 40 40 NW 15 24 30.36 1028 10 16.0934 0 0
11:52 am 11:52 Mostly Cloudy 48 8.9 21 -6.1 34 34 WNW 15 24 30.36 1028 10 16.0934 0 0
12:52 pm 12:52 Mostly Cloudy 48 8.9 21 -6.1 34 34 NW 15 24 30.35 1028 10 16.0934 0 0
1:52 pm 13:52 Mostly Cloudy 50 10 18 -7.8 28 28 NW 16 26 30.34 1027 10 16.0934 0 0
2:52 pm 14:52 Mostly Cloudy 52 11.1 19 -7.2 27 27 WNW 10 17 30.32 1027 10 16.0934 0 0
3:52 pm 15:52 Mostly Cloudy 53 11.7 17 -8.3 24 24 NNW 16 26 30.32 1027 10 16.0934 0 0
4:52 pm 16:52 Mostly Cloudy 51 10.6 14 -10 23 23 N 14 22 30.34 1027 10 16.0934 0 0
5:52 pm 17:52 Mostly Cloudy 48 8.9 15 -9.4 27 27 N 12 19 30.36 1028 10 16.0934 0 0
6:52 pm 18:52 Partly Cloudy 47 8.3 15 -9.4 28 28 NNW 9 15 30.39 1029 10 16.0934 0 0
7:52 pm 19:52 Mostly Clear 46 7.8 15 -9.4 29 29 NW 7 11 30.41 1030 10 16.0934 0 0
8:52 pm 20:52 Mostly Cloudy 45 7.2 16 -8.9 31 31 NW 8 13 30.42 1030 10 16.0934 0 0
9:52 pm 21:52 Partly Cloudy 44 6.7 16 -8.9 32 32 NNW 9 15 30.43 1030 10 16.0934 0 0
10:52 pm 22:52 Mostly Clear 41 5 18 -7.8 39 39 NNW 8 13 30.43 1030 10 16.0934 0 0
11:52 pm 23:52 Mostly Clear 41 5 18 -7.8 39 39 NW 5 7 30.44 1031 10 16.0934 0 0

Powered by AerisWeather